[Date Prev][Date Next][Thread Prev][Thread Next][Date Index][Thread Index]

[jamsat-news:1230] jas2info #174



========================   最新情報   ==============================

        Last updated :Fri.25-Feb.-2000 18:00 (JST) #174

====================================================================
   
  1)アマチュア通信衛星情報 FOシリーズの軌道要素、テレメトリ、
   QSOの状況等をまとめてみました.
   
   FO-29の2月25日(金)のテレメトリはアナログ系運用でテレメトリ
  周波数は435.802〜788MHzのUSBで13:13〜13:29
  (JST)に受信できました.当局で取得したデータの1部を掲載しておきます.
    
 AS17401C1  25Feb2000
 13:18-13:30 (JST)
   CW
 
 HI HI AE C7 88 55 00 E3 1E 6C 09 0A 3B 51 8E 60 92 90 B0 89 B6 B4 B5 B5 B6 
 HI HI AE C7 88 55 00 E3 1E 6C 09 0A 96 42 90 60 92 90 B0 A8 B6 B4 B5 B5 B6 
 HI HI AE C7 88 55 00 E3 1B 6D 09 18 30 6A 94 60 92 90 B0 75 B6 B4 B5 B5 B6 
 HI HI AE C7 88 55 00 E3 1B 6D 09 18 8D 46 8A 60 92 90 B0 7B B6 B3 B5 B5 B6 
 HI HI AE C7 88 55 00 E3 22 6E 09 1E 50 6B 91 60 92 90 B0 77 B6 B3 B5 B5 B6 
 HI HI AE C7 88 55 00 E3 22 6E 09 1E 62 61 8C 60 92 90 B0 78 B5 B3 B5 B5 B6 
 HI HI AE C7 88 55 00 E3 FB 6E 09 15 8A 63 8F 60 93 90 B0 7F B5 B3 B5 B5 B6 
 HI HI AE C7 88 55 00 E3 A1 6F 09 11 32 7D 8E 60 93 90 B0 7D B5 B3 B4 B4 B6 
 HI HI AE C7 88 55 00 E3 A1 6F 09 11 AE 67 8B 60 93 90 B0 65 B5 B3 B4 B4 B6

------------------------- FO-29の軌道要素 ------------------------------        
 
  ■ 軌道要素1:「jamsat−keps:970」より              
            SB KEPS @ AMSAT  $ORB00056.N
                  2Line Orbital Elements 00056.AMSAT

 HR AMSAT ORBITAL ELEMENTS FOR AMATEUR SATELLITES IN NASA FORMAT
 FROM WA5QGD FORT WORTH,TX February 25, 2000
 SEND SUBSCRIBE/UNSUBSCRIBE TO majordomo@amsat.org ONLY
 BID: ORB00056.N

 DECODE 2-LINE ELSETS WITH THE FOLLOWING KEY:
 1 AAAAAU 00  0  0 BBBBB.BBBBBBBB  .CCCCCCCC  00000-0  00000-0 0  DDDZ
 2 AAAAA EEE.EEEE FFF.FFFF GGGGGGG HHH.HHHH III.IIII JJ.JJJJJJJJKKKKKZ
 KEY: A-CATALOGNUM B-EPOCHTIME C-DECAY D-ELSETNUM E-INCLINATION F-RAAN
 G-ECCENTRICITY H-ARGPERIGEE I-MNANOM J-MNMOTION K-ORBITNUM Z-CHECKSUM

 TO ALL RADIO AMATEURS BT

 FO-29
 1 24278U 96046B   00055.21404985  .00000033  00000-0  68789-4 0 03117
 2 24278 098.5893 338.0222 0351560 161.7557 199.6574 13.52700786173886
  
 ■ 軌道要素2:「jamsat−keps:971」より                         
         SB KEPS @ AMSAT  $ORB00056.O
             Orbital Elements  00056.OSCAR

 HR AMSAT ORBITAL ELEMENTS FOR OSCAR SATELLITES
 FROM WA5QGD FORT WORTH,TX February 25, 2000
 SEND SUBSCRIBE/UNSUBSCRIBE TO majordomo@amsat.org ONLY
 BID: ORB00056.O
 TO ALL RADIO AMATEURS BT

  Satellite: FO-29
 Catalog number: 24278
 Epoch time:      00055.21404985
 Element set:    0311
 Inclination:      098.5893 deg
 RA of node:       338.0222 deg
 Eccentricity:    0.0351560
 Arg of perigee:   161.7557 deg
 Mean anomaly:     199.6574 deg
 Mean motion:   13.52700786 rev/day
 Decay rate:        3.3e-07 rev/day^2
 Epoch rev:           17388
 Checksum:              320
-------------------  FO-29(JAS-2)のテレメトリに関する情報  ------------------------
 
 2)上記の2月25日(金)の13:12(JST)のパスのディジタル・テレメトリの
  最後の行の分析結果です.

  AS17401C1  25Feb2000
  13:18-13:30 (JST)
   CW
 
  HI HI AE C7 88 55 00 E3 A1 6F 09 11 AE 67 8B 60 93 90 B0 65 B5 B3 B4 B4 B6  

 テレメトリ	内   容		換算値	単 位

 3C	磁気センサーZ軸=	85294.1	[nT]
 3D	磁気センサX軸	=	50490.2	[nT]
 4A	太陽電池発生電流=	 1362.8	[mA]
 4B	B充放電電流	=	 -118.4	[mA]
 4C	B端子電圧	=	   15.8	[V]
 4D	B中間端子電圧	=	    6.9	[V]
 5A	バス電圧  	=	   17.3	[V]
 5B	JTA送信電力	=	  558.4	[mW]
 5C 	構体温度1	=	   11.6	[℃]
 5D	構体温度2	=	   12.4	[℃]
 6A	構体温度3	=	   12.0	[℃]
 6B	構体温度4	=	   12.0	[℃]
 6C	Bセル温度	=	   11.2	[℃]

 * OSはWindows 2000,Office 2000 にて計算処理.

 ==================================================================================

 3)JARL のホームページに運用予定が記載されていましたのでご紹介します.
       ( http://www.jarl.or.jp/Japanese/3_Fuji/uy.htm )

        ■ ふじ3号/FOー29/JAS-2 ■  
   
     *** 運用予定について ***
    
  2月22日 〜 02月27日   デジタル系1200bpsメールボックス運用
  2月28日 〜 03月05日   アナログ系運用

 *なお,運用予定は都合により変更することがありますのでご了承願います。

 照会先 : lab@jarl.or.jp

 最新の情報はテレホンサービス(:03−3942−1000)をお聞きください。
   
 以後の運用に付きましては2月下旬にお知らせいたします。

-----------------------    FO-20(JAS-1b)道要素   -------------------------
 4)
 ■ 軌道要素1 :出典はFO-29「ふじ3号」に同じ.
  
  FO-20
 1 20480U 90013C   00055.00655806  .00000006  00000-0  94125-4 0 02159
 2 20480 099.0336 206.8836 0540591 313.9365 041.8281 12.83263739470631
 
 ■ 軌道要素2 :出典はFO-29「ふじ3号」に同じ.
               
  Satellite: FO-20
 Catalog number: 20480
 Epoch time:      00055.00655806
 Element set:    0215
 Inclination:      099.0336 deg
 RA of node:       206.8836 deg
 Eccentricity:    0.0540591
 Arg of perigee:   313.9365 deg
 Mean anomaly:     041.8281 deg
 Mean motion:   12.83263739 rev/day
 Decay rate:        6.0e-08 rev/day^2
 Epoch rev:           47063
 Checksum:              287

--------------  FO-20(JAS-1b)のテレメトリとQSOに関する情報  --------------------
 
 5)2月12日(土)の15:12(JST)のパスでは前回観測のような唸りはありませんでしたが
   単一正弦波状の音がテレメトリとして観測されました。しかしアナログQSOは正常で活発に
   行われておりました。

--------------------------------------------------------------------------------
 6)         ■ ふじ2号/FO−20/JAS-1b ■      
            
          「ふじ2号」 現況                                                                                  
             
   JAS-1b(ふじ2号)のCWテレメトリ信号に,1997年10月12日12時(JST)の
 日本上空通過時,3桁の数字が繰り返されるはずが3個の長音の繰り返しとなっているという
 異常が発見されました。この不具合は次の通過時からは回復していましたが13日15時20分の
 通過時に再び観測されました。現在はA0の送信が続いています。衛星のアナログ系中継モード
 動作は異常が無く,正常時のテレメトリ内容からは衛星の動作に異常は認められません。従って,
 直ちに衛星のミッションに影響することは無いと予想されますので,当面はアナログ系中継
 モードを継続します。衛星は既に打ち上げてから7年8ヶ月を経ておりますので,今後は監視を
 強化する予定です。アマチュア各位のレポートをお待ちします。
-------------------------------------------------------------------------------- 
  1997年10月14日 00時35分 確認のテレメトリ音 151 KB (A0) 
  1997年10月14日 11時10分 確認のテレメトリ音 216 KB (異常キーイング) 

  以上 JARLのホ−ムページの http://www.jarl.or.jp/Japanese/3_Fuji/fuji.htm
                                           
   =============   JAS-2 (ふじ3号)と現在までの情報   ===========
  
  A.電話によるふじ3号の運用情報
      社団法人日本アマチュア連盟によるサービス
           TEL .   03− 3942 − 1000
  B.アマチュア無線FAXサービス
      JARLによるふじ3号の軌道情報(オービットカレンダー)
         FAX No.  03− 3233 −0055
  C.WWWブラウザで情報を簡単に見れる人のためにJAS−2
     ふじ3号の衛星としての運用されるまでの名前)の概要、打ち上げ
     までの状況、運用中における状況を説明したホームページを紹介し
     ておきます.
     社団法人日本アマチュア無線連盟(JARL)のホームページ

          http://www.jarl.or.jp/Japanese/3_Fuji
 
     宇宙開発事業団(NASDA)ホームページ 
          http://www.nasda.go.jp/
         打上げ衛星 :地球観測プラットフォーム技術衛星(ADEOS) 
                       アマチュア衛星3号(JAS-2)
          http://yyy.tksc.nasda.go.jp/Home/Press/Press-j/jas-2_j.html        

  D.JAMSATによる軌道情報の活用
        JAMSATのホームページまたはjamsat−kepsの軌道要素より
      衛星の軌道情報を得る.
     JAMSATホームページ
               URL    http://www.jamsat.or.jp
       上記ホームページでは各地で行われるアマチュア通信衛星に関する
      ミューティングのお知らせや世界のアマチュア衛星に関する情報が
      満載されています.
 =========================================================================  
     JAMSATのメンバーのご協力によりJH6MME(高山 秀造)が
    執筆・編集を担当しております.ご指摘の意見、疑問やこのようにしたら
    というアイデアがありましたら小さなことでもかまいませんので気軽に下
    記アドレスまでご連絡ください.jamsat−newsからjas2
    infoへの転載をJH4PHW局坂井さんに担当して頂いております.  
                  E-mail : jh6mme@jamsat.or.jp : jh4phw@jamsat.or.jp
 ===============================   END  ===============================